Location: Casilda
(33.0440°S, 61.1680°W)
Time: 19:29:53
(UTC-03:00)

ISS - Pass Details

Date: 28 November 2022
Orbit: 414 x 420 km, 51.6° (Epoch: 02 December)

Event Time Altitude Azimuth Distance (km) Brightness Sun altitude
Exits shadow 02:53:38 19° 131° (SE) 1,074 -1.0 -28.4°
Drops below altitude 10° 02:54:45 10° 132° (SE) 1,525 0.0 -28.3°
Sets 02:56:53 0° 133° (SE) 2,397 1.3 -28.1°
